Shelton, WA
on Wednesday, November 7, 2012

Wednesday
Previous Day Next Day
Daily Summary
 ActualAverage (KOLM)Record (KOLM)
Temperature
Mean Temperature °F 45°F  
Max Temperature 52°F 53°F 73°F (2002)
Min Temperature 36°F 38°F 23°F (2003)
Degree Days
Heating Degree Days 20 20  
Month to date heating degree days 134  
Since 1 July heating degree days 928  
Cooling Degree Days 0 0  
Month to date cooling degree days 0  
Year to date cooling degree days 106  
Moisture
Dew Point 40°F   
Average Humidity 85    
Maximum Humidity 100    
Minimum Humidity 54    
Precipitation
Precipitation 0.00 in 0.27 in 1.17 in (1995)
Month to date precipitation 1.75  
Year to date precipitation 35.66  
Wind
Wind Speed 8 mph   
Max Wind Speed 13 mph   
Max Gust Speed 28 mph   
Visibility 10 miles   
Events     

Key: T is trace of precipitation, MM is missing value
Source: NWS Daily Summary
Time(PST)TemperatureDew PointHumidity Pressure Visibility Wind DirectionWind SpeedGust SpeedPrecipitationEvents Conditions
12:53 AM 46.0°F 45.0°F 96% 30.05 in 10.0 miles SW 9.2 mph - N/A   Clear
1:53 AM 45.0°F 43.0°F 93% 30.06 in 10.0 miles SW 8.1 mph - N/A   Clear
2:53 AM 44.1°F 42.1°F 93% 30.08 in 10.0 miles WSW 6.9 mph - N/A   Clear
3:53 AM 44.1°F 42.1°F 93% 30.09 in 10.0 miles SW 10.4 mph - N/A   Clear
4:53 AM 44.1°F 42.1°F 93% 30.09 in 10.0 miles WSW 10.4 mph - N/A   Clear
5:53 AM 43.0°F 41.0°F 93% 30.11 in 10.0 miles WSW 10.4 mph - N/A   Clear
6:53 AM 42.1°F 41.0°F 96% 30.12 in 10.0 miles WSW 8.1 mph - N/A   Partly Cloudy
7:53 AM 42.1°F 41.0°F 96% 30.12 in 10.0 miles West 5.8 mph - N/A   Clear
8:53 AM 45.0°F 41.0°F 86% 30.12 in 10.0 miles WSW 5.8 mph - N/A   Clear
9:53 AM 46.9°F 42.1°F 83% 30.13 in 10.0 miles SW 11.5 mph - N/A   Clear
10:53 AM 50.0°F 41.0°F 71% 30.13 in 10.0 miles SW 12.7 mph - N/A   Clear
11:53 AM 51.1°F 41.0°F 68% 30.12 in 10.0 miles SW 10.4 mph 27.6 mph N/A   Scattered Clouds
12:53 PM 51.1°F 37.9°F 61% 30.10 in 10.0 miles SSW 12.7 mph - N/A   Clear
1:53 PM 52.0°F 36.0°F 54% 30.09 in 10.0 miles WSW 9.2 mph - N/A   Clear
2:53 PM 50.0°F 39.2°F 66% 30.07 in 10.0 miles SW 10.4 mph - N/A   Overcast
3:53 PM 50.0°F 39.0°F 66% 30.06 in 10.0 miles SW 5.8 mph - N/A   Overcast
4:53 PM 45.0°F 39.9°F 82% 30.05 in 10.0 miles Calm Calm - N/A   Clear
7:53 PM 39.0°F 39.0°F 100% 30.02 in 10.0 miles West 3.5 mph - N/A   Unknown
8:53 PM 39.9°F 39.0°F 97% 29.99 in 10.0 miles Calm Calm - N/A   Overcast
9:53 PM 39.0°F 37.9°F 96% 29.98 in 10.0 miles North 4.6 mph - N/A   Mostly Cloudy
10:53 PM 37.0°F 36.0°F 96% 29.96 in 10.0 miles Calm Calm - N/A   Overcast
11:53 PM 36.0°F 36.0°F 100% 29.94 in 10.0 miles Calm Calm - N/A   Overcast
Moon Phase
Nov. 07 Nov. 13 Nov. 20 Nov. 28 Dec. 06
Sunrise:07:05 AM (PST) Moon Rise:No Moon Rise/
Sunset:04:46 PM (PST) Moon Set:01:22 PM (PST)11/7

Copyright © 2014 The Weather Underground, Inc.